Weather History for KHZY - May, 2013

Change the Weather History Date:

Friday, May 24, 2013

  Actual Average (KYNG) Record (KYNG)
Temperature  
Mean Temperature 40 °F 60 °F  
Max Temperature 45 °F 71 °F 88 °F (1933)
Min Temperature 34 °F 49 °F 25 °F (1963)
Degree Days  
Heating Degree Days 25 6  
Month to date heating degree days 214  
Since 1 July heating degree days 6241  
Cooling Degree Days 0 1  
Month to date cooling degree days 17  
Year to date cooling degree days 26  
Moisture  
Dew Point 34 °F    
Average Humidity 72    
Maximum Humidity 87    
Minimum Humidity 61    
Precipitation  
Precipitation 0.03 in 0.14 in - ()
Month to date precipitation 2.89  
Year to date precipitation 13.89  
Snow  
Snow 0.00 in 0.00 in - ()
Month to date snowfall 0.0  
Since 1 July snowfall 62.7  
Snow Depth -    
Sea Level Pressure  
Sea Level Pressure 30.21 in    
Wind  
Wind Speed 10 mph (NNW)    
Max Wind Speed 15 mph    
Max Gust Speed 25 mph    
Visibility 10 miles    
Events Rain    
T = Trace of Precipitation, MM = Missing Value Source: NWS Daily Summary

Daily Weather History Graph

Daily Weather History Graph

Search for Another Location

Airport or City:

Trip Planner

Search our weather history database for the weather conditions in past years. The results will help you decide how hot, cold, wet, or windy it might be!

Date:

Astronomy

May. 24, 2013 Rise Set
Actual Time 5:55 AM EDT 8:44 PM EDT
Civil Twilight 5:22 AM EDT 9:17 PM EDT
Nautical Twilight 4:41 AM EDT 9:59 PM EDT
Astronomical Twilight 3:53 AM EDT 10:46 PM EDT
Moon 8:24 PM EDT (5/24) 5:26 AM EDT (5/24)
Length of Visible Light 15h 55m
Length of Day
14h 49m
Full, 100% of the Moon is Illuminated
May 24
Full
May 25
Full
May 31
Last Quarter
Jun 8
New
Jun 16
First Quarter

Hourly Weather History & Observations

Time (EDT) Temp. Windchill Dew Point Humidity Pressure Visibility Wind Dir Wind Speed Gust Speed Precip Events Conditions
12:25 AM 42.8 °F 36.6 °F 39.2 °F 87% 30.01 in 10.0 mi North 11.5 mph 18.4 mph 0.01 in   Overcast
12:53 AM 43.0 °F 37.2 °F 37.9 °F 82% 30.02 in 9.0 mi North 10.4 mph 17.3 mph 0.01 in   Overcast
1:18 AM 42.8 °F 37.0 °F 37.4 °F 81% 30.02 in 8.0 mi North 10.4 mph 19.6 mph 0.00 in   Overcast
1:53 AM 43.0 °F 38.2 °F 37.9 °F 82% 30.03 in 10.0 mi North 8.1 mph 18.4 mph 0.00 in   Overcast
2:33 AM 42.8 °F 38.0 °F 37.4 °F 81% 30.04 in 10.0 mi North 8.1 mph - 0.00 in Rain Light Rain
2:53 AM 42.1 °F 36.6 °F 37.0 °F 82% 30.04 in 10.0 mi North 9.2 mph - 0.00 in Rain Light Rain
3:53 AM 41.0 °F 34.3 °F 36.0 °F 82% 30.07 in 10.0 mi North 11.5 mph 17.3 mph 0.01 in Rain Light Rain
4:20 AM 41.0 °F 34.3 °F 35.6 °F 81% 30.08 in 10.0 mi North 11.5 mph 20.7 mph 0.00 in   Overcast
4:53 AM 41.0 °F 35.8 °F 35.1 °F 79% 30.10 in 10.0 mi North 8.1 mph 16.1 mph 0.00 in Rain Light Rain
5:53 AM 41.0 °F 35.2 °F 35.1 °F 79% 30.12 in 10.0 mi North 9.2 mph - 0.01 in   Overcast
6:53 AM 42.1 °F 37.1 °F 34.0 °F 73% 30.14 in 10.0 mi North 8.1 mph - N/A   Overcast
7:53 AM 42.1 °F 36.6 °F 34.0 °F 73% 30.17 in 10.0 mi NNW 9.2 mph - N/A   Overcast
8:53 AM 41.0 °F 35.2 °F 33.1 °F 73% 30.20 in 10.0 mi NNW 9.2 mph - N/A   Overcast
9:53 AM 41.0 °F 34.7 °F 32.0 °F 70% 30.23 in 10.0 mi NNW 10.4 mph 16.1 mph N/A   Overcast
10:53 AM 41.0 °F 35.8 °F 30.9 °F 67% 30.25 in 10.0 mi NNW 8.1 mph - N/A   Overcast
11:53 AM 41.0 °F 34.3 °F 30.9 °F 67% 30.27 in 10.0 mi NNW 11.5 mph 18.4 mph N/A   Overcast
12:53 PM 41.0 °F 34.3 °F 30.9 °F 67% 30.27 in 10.0 mi NNW 11.5 mph 19.6 mph N/A   Overcast
1:53 PM 43.0 °F 37.2 °F 32.0 °F 65% 30.29 in 10.0 mi NNW 10.4 mph 21.9 mph N/A   Overcast
2:53 PM 43.0 °F 37.2 °F 32.0 °F 65% 30.30 in 10.0 mi NW 10.4 mph 20.7 mph N/A   Overcast
3:53 PM 44.1 °F 39.0 °F 32.0 °F 63% 30.30 in 10.0 mi NW 9.2 mph 17.3 mph N/A   Overcast
4:38 PM 44.6 °F 38.8 °F 33.8 °F 66% 30.28 in 10.0 mi NNW 11.5 mph 16.1 mph N/A   Overcast
4:53 PM 44.1 °F 38.6 °F 33.1 °F 65% 30.30 in 10.0 mi NNW 10.4 mph 18.4 mph N/A   Overcast
5:06 PM 44.6 °F 39.7 °F 33.8 °F 66% 30.28 in 10.0 mi NW 9.2 mph 18.4 mph N/A   Overcast
5:23 PM 44.6 °F 39.2 °F 33.8 °F 66% 30.29 in 10.0 mi NW 10.4 mph 20.7 mph N/A   Overcast
5:37 PM 44.6 °F 38.4 °F 33.8 °F 66% 30.29 in 10.0 mi NW 12.7 mph 24.2 mph N/A   Overcast
5:53 PM 45.0 °F 39.3 °F 33.1 °F 63% 30.31 in 10.0 mi NW 11.5 mph 17.3 mph N/A   Overcast
6:14 PM 44.6 °F 37.8 °F 33.8 °F 66% 30.29 in 10.0 mi NW 15.0 mph 25.3 mph N/A   Overcast
6:37 PM 44.6 °F 38.8 °F 32.0 °F 61% 30.29 in 10.0 mi NW 11.5 mph 21.9 mph N/A   Overcast
6:53 PM 44.1 °F 37.7 °F 32.0 °F 63% 30.31 in 10.0 mi NNW 12.7 mph 19.6 mph N/A   Mostly Cloudy
7:02 PM 44.6 °F 40.2 °F 33.8 °F 66% 30.29 in 10.0 mi NW 8.1 mph - N/A   Mostly Cloudy
7:53 PM 43.0 °F 37.2 °F 30.9 °F 62% 30.31 in 10.0 mi NW 10.4 mph 18.4 mph N/A   Scattered Clouds
8:53 PM 39.9 °F 37.8 °F 30.9 °F 70% 30.30 in 10.0 mi WNW 3.5 mph - N/A   Clear
9:53 PM 36.0 °F 33.3 °F 30.9 °F 82% 30.31 in 10.0 mi West 3.5 mph - N/A   Clear
10:53 PM 35.1 °F - 30.0 °F 82% 30.31 in 10.0 mi Calm Calm - N/A   Clear
11:53 PM 34.0 °F - 30.0 °F 85% 30.32 in 10.0 mi Calm Calm - N/A   Clear